This is the latest recevied weather packets stored in our database for station/object KE0WPC. If no packets are shown the sender has not sent any weather packets the latest 1 day(s).
| Time | Temp. | Humidity | Pressure | Rain* | Wind** | Luminosity | Snow |
|---|---|---|---|---|---|---|---|
| 1778073759 | 2.22° C | 65% | 1018.2 hPa | - | - | - | - |
| 1778071942 | 1.67° C | 66% | 1018.2 hPa | - | - | - | - |
| 1778071640 | 1.11° C | 66% | 1018.2 hPa | - | - | - | - |
| 1778070430 | 0.56° C | 67% | 1017.9 hPa | - | - | - | - |
| 1778069825 | 0.56° C | 67% | 1017.9 hPa | - | - | - | - |
| 1778069219 | 0° C | 67% | 1017.9 hPa | - | - | - | - |
| 1778068009 | 0° C | 66% | 1017.9 hPa | - | - | - | - |
| 1778064982 | 0° C | 65% | 1016.9 hPa | - | - | - | - |
| 1778063772 | 0° C | 64% | 1016.9 hPa | - | - | - | - |
| 1778063167 | 0° C | 64% | 1016.9 hPa | - | - | - | - |
| 1778062864 | 0° C | 64% | 1016.5 hPa | - | - | - | - |
| 1778061956 | -0.56° C | 63% | 1016.9 hPa | - | - | - | - |
| 1778061352 | -0.56° C | 63% | 1016.9 hPa | - | - | - | - |
| 1778061048 | -0.56° C | 62% | 1016.9 hPa | - | - | - | - |
| 1778060746 | -0.56° C | 62% | 1016.9 hPa | - | - | - | - |
| 1778060444 | 0° C | 61% | 1016.9 hPa | - | - | - | - |
| 1778060142 | 0° C | 61% | 1016.9 hPa | - | - | - | - |
| 1778059839 | 0° C | 61% | 1016.9 hPa | - | - | - | - |
| 1778059537 | 0° C | 61% | 1017.2 hPa | - | - | - | - |
| 1778057416 | 1.11° C | 60% | 1016.5 hPa | - | - | - | - |
| 1778057113 | 1.67° C | 60% | 1016.5 hPa | - | - | - | - |
| 1778054991 | 1.67° C | 60% | 1016.1 hPa | - | - | - | - |
| 1778054385 | 1.67° C | 60% | 1016.1 hPa | - | - | - | - |
| 1778053779 | 1.11° C | 60% | 1016.5 hPa | - | - | - | - |
| 1778053477 | 1.11° C | 59% | 1016.5 hPa | - | - | - | - |
* Rain since midnight (hover to see other rain measurements)
** Current wind speed in m/s (hover to see current wind gust speed)